Flag for Canada Weather past 2 weeks in Kitchener, Ontario, Canada

Now
39 °F

Passing clouds.


Feels Like: 37 °F
Forecast: 35 / 58 °F
Wind: 3 mph from Northwest

Location: Waterloo Well

Current Time: Oct 23, 2014 at 12:52:45 AM

Latest Report: Oct 23, 2014 at 12:00 AM


Visibility: 9 mi

Pressure: 30.25 "Hg

Humidity: 87%

Dew point: 36 °F

Location of KitchenerLocation

Historic Weather in Kitchener — Graph

°F

Kitchener temperature yesterday

Maximum temperature yesterday: 55 °F (at 3:00 PM)
Minimum temperature yesterday: 34 °F (at 8:00 AM)
Average temperature yesterday: 44 °F

Past Weeks' High & Low Weather Summary

 TemperatureHumidityPressure
High72 °F (Oct 14, 11:00 AM)100% (Oct 7, 11:03 PM)30.30 "Hg (Oct 7, 11:03 PM)
Low27 °F (Oct 12, 5:01 AM)44% (Oct 12, 4:00 PM)29.49 "Hg (Oct 17, 3:00 PM)
Average48 °F84%29.92 "Hg
* Reported Oct 7 11:03 PM — Oct 22 11:00 PM, Kitchener, Weather by CustomWeather, © 2014

Note: Actual official high and low records may vary slightly from our data, if they occured in-between our weather recording intervals... More about our weather records

Advertising

Kitchener weather history for previous 24 hours

 ConditionsComfort  
Time TempWeatherWind HumidityBarometerVisibility
11:00 PM
Oct 22
37 °FClear.7 mph93%30.26 "Hg9 mi
10:00 PM41 °FPassing clouds.6 mph87%30.27 "Hg9 mi
9:00 PM43 °FClear.8 mph76%30.27 "Hg9 mi
8:00 PM45 °FClear.7 mph76%30.26 "Hg9 mi
7:00 PM48 °FSunny.6 mph71%30.26 "Hg9 mi
6:00 PM52 °FSunny.6 mph62%30.24 "Hg9 mi
5:00 PM55 °FSunny.10 mph55%30.24 "Hg9 mi
4:00 PM55 °FPartly sunny.12 mph55%30.24 "Hg9 mi
3:00 PM55 °FScattered clouds.10 mph59%30.24 "Hg9 mi
2:00 PM54 °FPartly sunny.9 mph58%30.25 "Hg9 mi
1:00 PM54 °FPassing clouds.9 mph63%30.27 "Hg9 mi
12:00 PM52 °FSunny.9 mph62%30.28 "Hg9 mi
11:00 AM48 °FSunny.9 mph66%30.29 "Hg9 mi
10:00 AM43 °FSunny.10 mph76%30.29 "Hg9 mi
9:00 AM39 °FSunny.10 mph81%30.28 "Hg9 mi
8:00 AM34 °FClear.6 mph93%30.28 "Hg9 mi
7:00 AM36 °FClear.5 mph87%30.25 "Hg9 mi
6:00 AM37 °FClear.7 mph81%30.24 "Hg9 mi
5:00 AM37 °FPassing clouds.10 mph87%30.23 "Hg9 mi
4:56 AM37 °FPassing clouds.8 mph87%30.23 "Hg9 mi
4:00 AM39 °FOvercast.9 mph81%30.21 "Hg9 mi
3:00 AM41 °FOvercast.9 mph81%30.20 "Hg9 mi
2:00 AM41 °FOvercast.7 mph81%30.19 "Hg9 mi
1:00 AM41 °FOvercast.7 mph87%30.19 "Hg9 mi
12:00 AM41 °FMostly cloudy.9 mph87%30.18 "Hg9 mi
Weather by CustomWeather, © 2014

See weather overviewHow to use our weather pages